Stations météo

réclame
Mon MeteoGroup
La Hague, France (7020): Température de l'air & dewpoint: 12.07.2019 15:00:00 - 18.07.2019 15:00:00 (CEST)La Hague, France (7020): Vitesse du vent & gusts: 12.07.2019 15:00:00 - 18.07.2019 15:00:00 (CEST)La Hague, France (7020): Direction du vent: 12.07.2019 15:00:00 - 18.07.2019 15:00:00 (CEST)La Hague, France (7020): reduced air pressure: 12.07.2019 15:00:00 - 18.07.2019 15:00:00 (CEST)La Hague, France (7020): visibility: 12.07.2019 15:00:00 - 18.07.2019 15:00:00 (CEST)La Hague, France (7020): Quantités de précipitations: 12.07.2019 15:00:00 - 18.07.2019 15:00:00 (CEST)
Date & Time tt [°C] td [°C] ff [km/h] ff [knt] fx [km/h] fx [knt] dd ppp [hPa] vv [km] rr [mm]
18.07.2019 15:00:00 18,9 15,0 20 11 30 16 W 1013,5 - 0,0
18.07.2019 14:00:00 18,7 15,0 21 11 30 16 WSW 1013,4 12 0,0
18.07.2019 13:00:00 18,2 16,0 26 14 34 18 WSW 1013,1 - 0,0
18.07.2019 12:00:00 18,6 16,4 26 14 36 20 WSW 1012,8 - 0,0
18.07.2019 11:00:00 17,7 16,2 28 15 37 20 WSW 1012,6 8 0,0
18.07.2019 10:00:00 17,7 16,7 29 16 39 21 WSW 1012,2 - 0,0
18.07.2019 09:00:00 17,1 16,5 32 17 41 22 SW 1012,0 - 0,0
18.07.2019 08:00:00 16,8 16,2 31 17 43 23 SW 1011,8 8 0,2
18.07.2019 07:00:00 16,8 16,0 30 16 39 21 SW 1011,5 - 0,0
18.07.2019 06:00:00 16,6 15,5 24 13 33 18 SW 1012,0 - 0,0
18.07.2019 05:00:00 16,5 15,2 21 12 33 18 SW 1012,2 12 0,0
18.07.2019 04:00:00 16,5 15,2 26 14 34 18 SW 1012,7 - 0,0
18.07.2019 03:00:00 16,4 15,3 24 13 33 18 SW 1013,1 - 0,0
18.07.2019 02:00:00 16,6 15,6 21 12 30 16 SW 1013,4 12 0,0
18.07.2019 01:00:00 16,6 15,5 22 12 30 16 WSW 1013,9 - 0,0
18.07.2019 00:00:00 16,8 15,5 24 13 33 18 WSW 1014,1 - 0,0
17.07.2019 23:00:00 16,7 15,4 26 14 33 18 WSW 1014,3 10 0,0
17.07.2019 22:00:00 16,7 15,6 25 14 33 18 SW 1014,1 - 0,0
17.07.2019 21:00:00 17,0 15,3 25 13 32 18 SW 1014,1 - 0,0
17.07.2019 20:00:00 18,1 15,4 21 12 30 16 WSW 1014,5 12 0,0
17.07.2019 19:00:00 18,1 14,8 21 11 29 16 WSW 1014,9 - 0,0
17.07.2019 18:00:00 17,6 14,5 16 9 24 13 WSW 1015,0 - 0,0
17.07.2019 17:00:00 18,2 14,9 19 10 26 14 WSW 1015,4 12 0,0
17.07.2019 16:00:00 18,6 15,1 16 9 21 11 SW 1015,5 - 0,0
17.07.2019 15:00:00 18,8 14,9 13 7 17 9 SW 1015,6 - 0,0
17.07.2019 14:00:00 18,3 13,8 13 7 18 10 WSW 1016,0 10 0,0
17.07.2019 13:00:00 18,1 14,8 13 7 19 10 WSW 1016,3 - 0,0
17.07.2019 12:00:00 17,3 14,6 13 7 18 10 WSW 1016,4 - 0,0
17.07.2019 11:00:00 17,1 14,7 14 8 21 11 SW 1016,5 10 0,0
17.07.2019 10:00:00 16,6 14,6 16 9 21 11 SW 1016,6 - 0,0
17.07.2019 09:00:00 16,0 13,3 16 9 21 11 SW 1016,3 - 0,0
17.07.2019 08:00:00 15,2 11,8 7 4 16 9 SSW 1016,0 14 0,0
17.07.2019 07:00:00 12,4 10,8 14 8 16 9 SE 1016,1 - 0,0
17.07.2019 06:00:00 11,9 11,0 13 7 16 9 SE 1016,3 - 0,0
17.07.2019 05:00:00 12,2 11,3 13 7 14 8 ESE 1016,6 12 0,0
17.07.2019 04:00:00 12,1 10,8 10 5 13 7 ESE 1017,1 - 0,0
17.07.2019 03:00:00 14,6 13,1 6 4 12 6 NNE 1017,6 - 0,2
17.07.2019 02:00:00 15,1 13,6 9 5 14 7 N 1018,1 12 0,0
17.07.2019 01:00:00 15,2 13,7 10 6 14 8 N 1018,1 - 0,0
17.07.2019 00:00:00 15,6 14,0 10 5 12 7 N 1018,3 - 0,0
16.07.2019 23:00:00 15,7 13,7 7 4 14 8 NE 1018,2 12 0,0
16.07.2019 22:00:00 15,4 12,9 10 5 14 7 E 1017,9 - 0,0
16.07.2019 21:00:00 16,9 13,2 11 6 19 10 E 1018,1 - 0,0
16.07.2019 20:00:00 18,0 13,5 14 8 24 13 E 1018,3 - 0,0
16.07.2019 19:00:00 18,4 13,7 18 10 27 14 E 1018,5 - 0,0
16.07.2019 18:00:00 18,6 13,2 19 10 27 15 E 1018,9 - 0,0
16.07.2019 17:00:00 18,7 13,5 21 12 27 14 ENE 1019,2 16 0,0
16.07.2019 16:00:00 19,1 13,9 19 10 - - ENE 1019,5 - -
16.07.2019 15:00:00 19,1 14,6 - - - - - 1019,5 - 0,0
16.07.2019 14:00:00 19,2 14,5 - - - - - 1019,6 16 0,0
16.07.2019 13:00:00 18,8 14,5 19 10 24 13 ENE 1019,8 - 0,0
16.07.2019 12:00:00 18,5 14,4 19 10 26 14 ENE 1019,9 - 0,0
16.07.2019 11:00:00 18,3 14,6 19 10 27 14 ENE 1019,9 16 0,0
16.07.2019 10:00:00 17,4 14,7 20 11 27 15 ENE 1020,1 - 0,0
16.07.2019 09:00:00 16,8 14,6 16 9 23 12 ENE 1020,1 - 0,0
16.07.2019 08:00:00 16,2 14,7 13 7 22 12 NE 1020,1 16 0,0
16.07.2019 07:00:00 15,4 13,9 14 8 24 13 ENE 1020,1 - 0,0
16.07.2019 06:00:00 14,9 13,4 16 9 23 13 ENE 1019,9 - 0,0
16.07.2019 05:00:00 14,8 13,0 16 9 27 14 ENE 1020,0 12 0,0
16.07.2019 04:00:00 14,8 13,0 18 10 24 13 ENE 1020,3 - 0,0
16.07.2019 03:00:00 11,4 10,3 6 4 14 8 E 1020,8 - 0,0
16.07.2019 02:00:00 11,0 9,4 9 5 11 6 SE 1020,8 12 0,0
16.07.2019 01:00:00 11,5 9,6 5 3 15 8 S 1021,1 - 0,0
16.07.2019 00:00:00 11,2 9,3 10 5 11 6 ESE 1021,1 - 0,0
15.07.2019 23:00:00 13,1 9,7 8 5 18 10 E 1021,4 16 0,0
15.07.2019 22:00:00 15,0 10,8 14 7 27 15 E 1021,1 - 0,0
15.07.2019 21:00:00 16,3 11,2 22 12 32 18 E 1021,1 - 0,0
15.07.2019 20:00:00 16,9 11,4 25 14 33 18 E 1021,1 16 0,0
15.07.2019 19:00:00 17,2 11,0 22 12 31 17 E 1021,1 - 0,0
15.07.2019 18:00:00 17,5 10,6 24 13 32 17 ENE 1021,5 - 0,0
15.07.2019 17:00:00 18,0 11,1 18 10 29 16 ENE 1022,0 - 0,0
15.07.2019 16:00:00 17,8 10,9 21 11 29 16 ENE 1022,2 - 0,0
15.07.2019 15:00:00 18,2 12,0 21 12 30 16 ENE 1022,4 - 0,0
15.07.2019 14:00:00 18,1 12,1 20 11 28 15 ENE 1022,6 16 0,0
15.07.2019 13:00:00 18,0 12,7 20 11 28 15 ENE 1022,6 - 0,0
15.07.2019 12:00:00 16,9 14,4 18 10 28 15 E 1022,7 - 0,0
15.07.2019 11:00:00 15,8 14,0 18 10 26 14 ENE 1022,7 10 0,2
15.07.2019 10:00:00 16,6 13,9 9 5 15 8 NE 1022,8 - 0,0
15.07.2019 09:00:00 17,0 13,9 9 5 18 10 ENE 1022,5 - 0,0
15.07.2019 08:00:00 16,1 13,4 14 8 19 10 ENE 1022,2 14 0,0
15.07.2019 07:00:00 15,9 13,6 14 7 23 12 ENE 1022,2 - 0,0
15.07.2019 06:00:00 15,8 14,0 17 9 24 13 ENE 1022,0 - 0,0
15.07.2019 05:00:00 15,6 14,0 17 9 25 13 ENE 1022,1 14 0,0
15.07.2019 04:00:00 15,5 13,9 14 8 20 11 ENE 1022,3 - 0,2
15.07.2019 03:00:00 15,2 13,7 11 6 16 9 ENE 1022,7 - 0,0
15.07.2019 02:00:00 15,4 13,8 9 5 16 8 NE 1022,7 12 0,0
15.07.2019 01:00:00 15,7 13,7 9 5 18 10 NE 1022,7 - 0,0
15.07.2019 00:00:00 15,9 13,7 13 7 17 9 ENE 1022,4 - 0,0
14.07.2019 23:00:00 16,1 13,8 11 6 17 9 ENE 1022,5 16 0,0
14.07.2019 22:00:00 16,3 13,6 10 6 23 12 E 1022,1 - 0,0
14.07.2019 21:00:00 17,3 13,8 18 10 26 14 E 1022,1 - 0,0
14.07.2019 20:00:00 18,4 13,9 17 9 32 18 E 1022,1 16 0,0
14.07.2019 19:00:00 18,7 13,5 25 13 32 17 E 1022,1 - 0,0
14.07.2019 18:00:00 19,1 13,9 23 13 36 19 E 1022,3 - 0,0
14.07.2019 17:00:00 19,4 13,8 27 15 36 19 E 1022,3 16 0,0
14.07.2019 16:00:00 19,4 13,8 25 13 37 20 E 1022,4 - 0,0
14.07.2019 15:00:00 19,7 14,7 25 14 35 19 E 1022,5 - 0,0
14.07.2019 14:00:00 19,8 15,4 24 13 35 19 E 1022,7 16 0,0
14.07.2019 13:00:00 19,5 14,5 25 13 38 21 E 1022,7 - 0,0
14.07.2019 12:00:00 19,4 14,9 26 14 38 20 E 1022,5 - 0,0
14.07.2019 11:00:00 18,9 14,6 24 13 34 18 E 1022,1 14 0,0
14.07.2019 10:00:00 18,4 15,5 23 12 36 19 E 1022,1 - 0,0
14.07.2019 09:00:00 17,5 15,7 23 12 33 18 E 1021,8 - 0,0
14.07.2019 08:00:00 16,8 15,7 19 10 25 14 E 1021,5 12 0,0
14.07.2019 07:00:00 14,3 13,0 11 6 14 8 ESE 1021,3 - 0,0
14.07.2019 06:00:00 13,5 11,9 13 7 14 8 E 1021,0 - 0,0
14.07.2019 05:00:00 13,0 11,2 9 5 12 7 E 1020,9 12 0,0
14.07.2019 04:00:00 13,2 11,8 7 4 10 6 ESE 1021,4 - 0,0
14.07.2019 03:00:00 13,6 11,6 7 4 12 7 ESE 1021,9 - 0,0
14.07.2019 02:00:00 14,5 12,2 6 4 10 5 SE 1021,9 16 0,0
14.07.2019 01:00:00 16,1 13,9 9 5 18 10 N 1021,9 - 0,0
14.07.2019 00:00:00 15,0 13,2 2 1 8 4 N 1021,8 - 0,0
13.07.2019 23:00:00 14,9 12,6 0 0 16 9 N 1021,7 16 0,0
13.07.2019 22:00:00 16,9 14,4 12 7 20 11 NNW 1021,7 - 0,0
13.07.2019 21:00:00 17,7 14,8 16 9 21 12 NNW 1021,8 - 0,0
13.07.2019 20:00:00 18,2 15,1 14 8 19 10 NNW 1022,0 16 0,0
13.07.2019 19:00:00 18,6 15,1 13 7 19 11 NNW 1022,2 - 0,0
13.07.2019 18:00:00 18,9 15,4 13 7 18 10 NW 1022,5 - 0,0
13.07.2019 17:00:00 19,1 14,8 13 7 17 9 NW 1022,7 16 0,0
13.07.2019 16:00:00 18,7 14,6 11 6 14 8 NNW 1022,9 - 0,0
13.07.2019 15:00:00 18,6 14,5 10 5 15 8 N 1023,1 - 0,0
13.07.2019 14:00:00 18,4 13,9 11 6 17 9 NNE 1023,2 16 0,0
13.07.2019 13:00:00 18,9 14,6 13 7 20 11 NNE 1023,1 - 0,0
13.07.2019 12:00:00 18,6 14,5 17 9 23 12 NNE 1022,9 - 0,0
13.07.2019 11:00:00 18,2 14,5 15 8 23 12 NNE 1022,8 16 0,0
13.07.2019 10:00:00 17,2 14,7 18 10 26 14 N 1022,6 - 0,0
13.07.2019 09:00:00 16,8 14,4 18 10 27 15 N 1022,3 - 0,0
13.07.2019 08:00:00 16,3 14,3 16 9 22 12 NNE 1021,8 16 0,0
13.07.2019 07:00:00 16,2 14,2 16 9 22 12 NNE 1021,5 - 0,0
13.07.2019 06:00:00 15,8 14,3 11 6 17 9 NNE 1021,3 - 0,2
13.07.2019 05:00:00 15,9 14,6 13 7 17 9 N 1021,2 16 0,0
13.07.2019 04:00:00 14,4 12,8 6 3 16 8 E 1020,8 - 0,0
13.07.2019 03:00:00 16,0 14,4 13 7 22 12 NNE 1020,6 - 0,0
13.07.2019 02:00:00 16,3 14,3 11 6 26 14 N 1020,6 16 0,0
13.07.2019 01:00:00 16,6 14,1 20 11 31 17 NNW 1020,4 - 0,0
13.07.2019 00:00:00 17,1 14,7 25 13 33 18 NNW 1019,9 - 0,0
12.07.2019 23:00:00 17,2 14,7 22 12 32 17 NNW 1019,6 16 0,0
12.07.2019 22:00:00 17,4 14,7 14 8 25 14 WNW 1019,1 - 0,0
12.07.2019 21:00:00 17,9 14,4 20 11 26 14 WNW 1018,8 - 0,0
12.07.2019 20:00:00 18,7 15,4 12 7 22 12 W 1018,3 - 0,0
12.07.2019 19:00:00 18,7 15,6 18 10 25 13 WSW 1018,2 - 0,0
12.07.2019 18:00:00 19,0 15,7 16 8 24 13 W 1018,0 - 0,0
12.07.2019 17:00:00 19,3 16,0 16 9 22 12 W 1018,1 18 0,0
12.07.2019 16:00:00 19,2 16,2 11 6 18 10 W 1018,0 - 0,0
12.07.2019 15:00:00 19,6 16,6 12 6 17 9 W 1017,7 - 0,0

tt = Température de l'air
td = dewpoint
ff = Vitesse du vent
fx = gusts
dd = Direction du vent
ppp = reduced air pressure
vv = visibility
rr = Quantités de précipitations

stations d'obs. à proximité